2024-105A (59917 NORAD) Tracking and Keplerian Element Data

This shows tracking and keplerian element data for the satellite.

Feedback or suggestion? Click here.




ElementValue
Catalog59917
Name2024-105A
Epoch Orbit123
Epoch Day160.18389357
Epoch Year2024
RAAN166.5746
Inclination97.6016
Eccentricity0.0013774
Argument of Perigee253.8806
Mean Anonmoly106.0907
Mean Motion15.09271637
Decay Rate4.796E-05
L11 59917U 24105A 24160.18389357 .00004796 00000+0 30454-3 0 9994
L22 59917 97.6016 166.5746 0013774 253.8806 106.0907 15.09271637 1231



Live tracking and technical data element details for 2024-105A (NORAD 59917). 2024-105A can be tracked NOW for your location showing map with azimuth and elevation plus other details from your city location.







IsCatalogInMostPopularTable: catalog: 59917, numindb: 6
Update: records affected: 1



GetName: 59917 2024-105A

Hit Count: updated at: Tue, 16 Jul 2024 02:30:33 GMT